User: anonymous   Login
Location: Ostrava
(49.8330°N, 18.2830°E)
Time: 09:53:21
(UTC+02:00)
Language:

Cosmos 1400 Rocket - Orbit

View from above orbital plane
View from above orbital plane
View from above satellite
View from above satellite

Ground track
Ground track

The orbit data is extracted from the following two-line orbital elements,

1 13403U 82079B   17143.61524193 -.00000052 +00000-0 -50524-5 0  9994
2 13403 081.1676 297.4819 0033915 001.7936 358.3402 15.06567189892809
Epoch (UTC): 23 May 2017 14:45:56
Eccentricity: 0.0033915
inclination: 81.1676°
perigee height: 523 km
apogee height: 570 km
right ascension of ascending node: 297.4819°
argument of perigee: 1.7936°
revolutions per day: 15.06567189
mean anomaly at epoch: 358.3402°
orbit number at epoch: 89280

The dashed part of the orbit path shows where the satellite is in the earth's shadow,  

DLR